国际通讯卫星 3-F2星 (INTELSAT 3-F2)

导读 | 星芒AI

INTELSAT 3-F2 是一颗由美国在1968年发射的通信卫星,属于INTELSAT III系列,旨在提供跨大西洋的电视和电话传输服务。该卫星由Hughes Aircraft Company制造,是早期地球同步轨道通信卫星的代表之一。尽管发射后不久即失效,但它为后续通信卫星的发展提供了宝贵经验,并推动了国际通信卫星组织(INTELSAT)的技术进步。

基本信息
目录编号:
3623
目录名称:
INTELSAT 3-F2
国际标识:
1968-116A
轨道中心:
EARTH
卫星名称:
国际通讯卫星 3-F2星
卫星全名:
国际通讯卫星 3-F2星 (INTELSAT 3-F2)
卫星状态:
在轨 (已飞行20815 天)
发射日期:
1968-12-19 UTC
国别 :
(ITSO)
星等 :
--
轨道信息
数据来源 国际轨道数据 AOE轨道数据
星历时间 2025-12-14T13:42:19+0800
1天前
查看轨道信息
2025-12-12T17:00:00+0800
2天前
查看轨道信息
半长轴 45249.675km 45249.809km
偏心率 0.0089788 0.0089781
轨道倾角 4.487° 4.492°
近地点辐角 84.627° 84.733°
升交点赤经 297.048° 297.043°
平近点角 326.325° 81.393°
近地点 38465.252km 38465.416km
远地点 39277.828km 39277.932km
周期 1596.551分钟 1596.559分钟
每日圈数 0.901944 0.90194
详细信息
卫星平台:
Intelsat
平衡模式:
自旋稳定
覆盖范围:
全球
运营商:
国际卫星通信公司
运营商所在国:
美国
制造商(研发单位):
天合汽车集团
制造商所在国:
美国
使用方式:
暂无
卫星简介
从1965年4月至1984年3月,国际通信卫星组织发射了5代、6种不同性能的卫星共计35颗,除6颗卫星因运载火箭和远地点发动机故障而发射失败外,其余29颗卫星均被送到了预定的静止轨道位置。1984年8月前后,国际通信卫星组织利用部署在大西洋、太平洋、印度洋上空的15颗国际通信卫星,为遍布世界各地170多个国家或地区提供电话、电传、电报、电视和数据传输等电信业务;该卫星已退役。
2D轨道图
3D轨道图
轨道高度分析图
轨道倾角分析图
轨道综合分析图
查看轨道综合分析图